Location: *
(31.2983°S, 151.4094°E)
Time: 01:14:55
(UTC+00:00)

ATLAS 2AS CENTAUR R/B - Pass Details

Date: 25 August 2019
Orbit: 919 x 1292 km, 63.6° (Epoch: 21 September)

Event Time Altitude Azimuth Distance (km) Brightness Sun altitude
Exits shadow 18:57:05 29° 255° (WSW) 1,662 3.2 -18.1°
Maximum altitude 18:58:20 31° 233° (SW) 1,582 3.2 -17.9°
Drops below altitude 10° 19:03:41 10° 172° (S) 2,639 4.8 -16.7°
Sets 19:06:32 0° 161° (SSE) 3,596 5.7 -16.1°
